Flag for U.S.A. Weather past 2 weeks in Honolulu, Hawaii, U.S.A.

Now
79 °F

Broken clouds.


Feels Like: 82 °F
Forecast: 71 / 86 °F
Wind: 8 mph from Southeast

Location: Honolulu International Airport

Current Time: Sep 19, 2014 at 8:31:45 AM

Latest Report: Sep 19, 2014 at 7:53 AM


Visibility: 10 mi

Pressure: 29.94 "Hg

Humidity: 79%

Dew point: 72 °F

Location of HonoluluLocation

Historic Weather in Honolulu — Graph

°F

Honolulu temperature yesterday

Maximum temperature yesterday: 86 °F (at 1:53 PM)
Minimum temperature yesterday: 76 °F (at 4:53 AM)
Average temperature yesterday: 79 °F

Past Weeks' High & Low Weather Summary

 TemperatureHumidityPressure
High93 °F (Sep 7, 1:53 PM)97% (Sep 15, 5:53 AM)30.02 "Hg (Sep 15, 5:53 AM)
Low73 °F (Sep 14, 3:53 AM)34% (Sep 7, 12:53 PM)29.87 "Hg (Sep 15, 3:53 PM)
Average82 °F64%29.95 "Hg
* Reported Sep 4 6:53 AM — Sep 19 6:53 AM, Honolulu, Weather by CustomWeather, © 2014

Note: Actual official high and low records may vary slightly from our data, if they occured in-between our weather recording intervals... More about our weather records

Advertising

Honolulu weather history for previous 24 hours

 ConditionsComfort  
Time TempWeatherWind HumidityBarometerVisibility
6:53 AM
Sep 19
75 °FScattered clouds.3 mph82%29.93 "Hg10 mi
5:53 AM75 °FPassing clouds.3 mph82%29.92 "Hg10 mi
4:53 AM74 °FPassing clouds.No wind85%29.91 "Hg10 mi
3:53 AM75 °FPassing clouds.No wind82%29.91 "Hg10 mi
2:53 AM75 °FPassing clouds.3 mph85%29.92 "Hg10 mi
1:53 AM75 °FPassing clouds.3 mph85%29.92 "Hg10 mi
12:53 AM76 °FPassing clouds.3 mph85%29.94 "Hg10 mi
11:53 PM
Sep 18
77 °FPassing clouds.No wind82%29.95 "Hg10 mi
10:53 PM77 °FPassing clouds.No wind82%29.95 "Hg10 mi
9:53 PM78 °FPassing clouds.No wind79%29.96 "Hg10 mi
8:53 PM78 °FPassing clouds.No wind79%29.96 "Hg10 mi
7:53 PM79 °FPassing clouds.3 mph77%29.94 "Hg10 mi
6:53 PM80 °FPartly cloudy.No wind71%29.92 "Hg10 mi
5:53 PM79 °FBroken clouds.3 mph77%29.90 "Hg10 mi
4:53 PM78 °FBroken clouds.9 mph84%29.89 "Hg10 mi
3:53 PM78 °FBroken clouds.8 mph87%29.88 "Hg7 mi
2:53 PM79 °FHeavy rain. Broken clouds.12 mph84%29.89 "Hg8 mi
1:53 PM86 °FBroken clouds.12 mph61%29.89 "Hg10 mi
12:53 PM85 °FBroken clouds.8 mph63%29.91 "Hg10 mi
11:53 AM82 °FBroken clouds.9 mph74%29.94 "Hg10 mi
10:53 AM82 °FBroken clouds.9 mph70%29.95 "Hg10 mi
9:53 AM85 °FScattered clouds.7 mph57%29.95 "Hg10 mi
8:53 AM83 °FScattered clouds.10 mph63%29.96 "Hg10 mi
Weather by CustomWeather, © 2014

See weather overviewHow to use our weather pages